TimeCDT,TemperatureF,Dew PointF,Humidity,Sea Level PressureIn,VisibilityMPH,Wind Direction,Wind SpeedMPH,Gust SpeedMPH,PrecipitationIn,Events,Conditions,WindDirDegrees,DateUTC
12:53 AM,41.0,37.9,89,30.09,10.0,SSW,3.5,-,N/A,,Clear,210,2012-09-19 05:53:00
1:53 AM,41.0,37.0,86,30.09,10.0,SW,3.5,-,N/A,,Clear,220,2012-09-19 06:53:00
2:53 AM,39.9,37.0,89,30.08,10.0,Calm,Calm,-,N/A,,Clear,0,2012-09-19 07:53:00
3:53 AM,39.9,36.0,86,30.09,10.0,SSW,6.9,-,N/A,,Clear,200,2012-09-19 08:53:00
4:53 AM,39.0,36.0,89,30.09,10.0,SSW,4.6,-,N/A,,Clear,200,2012-09-19 09:53:00
5:53 AM,39.0,36.0,89,30.11,10.0,Calm,Calm,-,N/A,,Clear,0,2012-09-19 10:53:00
6:53 AM,41.0,37.9,89,30.14,10.0,South,5.8,-,N/A,,Clear,190,2012-09-19 11:53:00
7:53 AM,48.0,41.0,77,30.14,10.0,South,4.6,-,N/A,,Clear,180,2012-09-19 12:53:00
8:53 AM,55.9,39.9,55,30.15,10.0,South,11.5,-,N/A,,Clear,190,2012-09-19 13:53:00
9:53 AM,62.1,37.0,39,30.14,10.0,South,13.8,-,N/A,,Clear,190,2012-09-19 14:53:00
10:53 AM,66.9,37.0,33,30.14,10.0,SSW,13.8,20.7,N/A,,Clear,200,2012-09-19 15:53:00
11:53 AM,68.0,37.0,32,30.12,10.0,SSW,15.0,21.9,N/A,,Clear,210,2012-09-19 16:53:00
12:53 PM,70.0,36.0,29,30.09,10.0,South,16.1,24.2,N/A,,Clear,170,2012-09-19 17:53:00
1:53 PM,72.0,37.0,28,30.07,10.0,SSW,16.1,27.6,N/A,,Clear,200,2012-09-19 18:53:00
2:53 PM,72.0,37.9,29,30.03,10.0,South,19.6,25.3,N/A,,Clear,180,2012-09-19 19:53:00
3:53 PM,72.0,39.0,30,30.00,10.0,South,17.3,26.5,N/A,,Clear,180,2012-09-19 20:53:00
4:53 PM,72.0,39.0,30,29.99,10.0,SSW,15.0,28.8,N/A,,Clear,200,2012-09-19 21:53:00
5:53 PM,69.1,39.9,35,29.97,10.0,South,11.5,23.0,N/A,,Clear,190,2012-09-19 22:53:00
6:53 PM,66.0,41.0,40,29.96,10.0,South,13.8,-,N/A,,Clear,180,2012-09-19 23:53:00
7:53 PM,62.6,42.8,48,29.95,10.0,South,12.7,-,N/A,,Clear,170,2012-09-20 00:53:00
8:53 PM,60.1,43.0,53,29.98,10.0,South,8.1,-,N/A,,Clear,190,2012-09-20 01:53:00
9:53 PM,59.0,43.0,55,29.98,10.0,South,10.4,-,N/A,,Clear,180,2012-09-20 02:53:00
10:53 PM,57.9,44.1,60,29.98,10.0,South,10.4,-,N/A,,Clear,180,2012-09-20 03:53:00
11:53 PM,57.0,44.1,62,29.97,10.0,South,10.4,-,N/A,,Clear,190,2012-09-20 04:53:00